Location: Grand Lay
(47.3253°N, 0.9468°E)
Time: 23:49:09
(UTC+00:00)

USA 32 - Pass Details

Date: 18 January 2026
Orbit: 774 x 780 km, 85.0° (Epoch: 15 February)

Event Time Altitude Azimuth Distance (km) Brightness Sun altitude
Rises 06:07:24 0° 197° (SSW) 3,252 7.2 -14.8°
Reaches altitude 10° 06:09:48 10° 202° (SSW) 2,329 6.4 -14.4°
Maximum altitude 06:14:54 54° 280° (W) 950 4.1 -13.6°
Drops below altitude 10° 06:20:04 10° 357° (N) 2,345 6.3 -12.7°
Sets 06:22:29 0° 2° (N) 3,277 7.1 -12.3°
